Regional Weather Roundup
Issued by NWS Midland/Odessa, TX

Skip options and go directly to product.
Home | Oldest Version | Previous Version | Current Version | All | Text Only | Save Text | Print | Product List | Glossary On

Skip product version selection by date and time.   
427
ASUS44 KMAF 290201
RWRMAF
MIDLAND AREA WEATHER ROUNDUP
NATIONAL WEATHER SERVICE MIDLAND TX
900 PM CDT SAT MAY 28 2016

...IN SOUTHWEST TEXAS AND SOUTHEAST NEW MEXICO...

CITY           SKY/WX    TMP DP  RH WIND       PRES   REMARKS
ALPINE         CLEAR     80  56  43 SE15G23   30.05R
ANDREWS        FAIR      84  56  37 S10G16    29.95R
ARTESIA        CLEAR     84  27  12 SE7       29.94R
BIG SPRING     CLOUDY    80  60  49 SE12      29.96R
CARLSBAD       CLEAR     82  19   9 E7        29.91R
DRYDEN           N/A     85  66  53 E14       29.90R
FORT STOCKTON  NOT AVBL
GUAD PASS      NOT AVBL
HOBBS          CLEAR     81  18   9 CALM      29.98S
MARFA            N/A     77  19  11 SW7       30.04R
MIDLAND AIRPK  CLOUDY    86  59  39 SE18      29.95R THUNDER
MIDLAND INTL   CLEAR     85  60  42 S15       29.94R
ODESSA         CLEAR     85  60  42 S15       29.95R
PECOS          CLEAR     88  59  37 E17G23    29.88R
PRESIDIO       FAIR      93  13   5 SW3       29.85S
SEMINOLE       CLOUDY    84  27  12 CALM      29.96R
SNYDER           N/A     74  58  56 NE9       29.97R
WINK           CLEAR     85  60  42 SE14G24   29.90R
$$
...OTHER STATIONS IN TEXAS...

CITY           SKY/WX    TMP DP  RH WIND       PRES   REMARKS
ABILENE        CLOUDY    78  66  66 E8        29.96R
AMARILLO       CLEAR     70  49  47 SE10      30.04R
AUSTIN         CLOUDY    82  73  74 SE9       29.96R
BROWNSVILLE    MOCLDY    81  76  84 SE12      29.93R
CORPUS CHRISTI PTCLDY    81  75  82 SE10      29.94R
DALLAS FTW     MOCLDY    81  73  76 SE8       29.95R
DEL RIO        PTCLDY    88  70  55 E8        29.84R
EL PASO        PTCLDY    86   1   4 W7        29.93R
HOUSTON INT    PTCLDY    77  73  87 SE9       29.98R
LUBBOCK        PTCLDY    78  40  25 E14       29.99R
SAN ANGELO     MOCLDY    77  66  68 SE16      29.92R THUNDER
SAN ANTONIO    CLOUDY    81  73  76 E18       29.94R
WACO           CLEAR     82  73  74 SE7       29.96R
WICHITA FALLS  NOT AVBL
$$
...OTHER LOCATIONS IN NEW MEXICO...

CITY           SKY/WX    TMP DP  RH WIND       PRES   REMARKS
ALAMAGORDO     CLEAR     77  14   9 S6        29.98R
ALBUQUERQUE    PTCLDY    78  19  11 SW7       30.03R
CANNON AFB     CLEAR     75  36  23 SE7       30.02S
CLOVIS         CLEAR     73  37  27 E7        30.03S
HOLLOMAN AFB   CLEAR     83  10   6 S7        29.96R
ROSWELL        CLEAR     79  26  14 SE8       29.94R
RUIDOSO          N/A     68   9  10 SW9       30.17R
SANTA FE       CLEAR     69  20  15 W3        30.10R
TRUTH OR CONSE CLEAR     80   5   5 S14       29.99R
TUCUMCARI      CLEAR     76  30  18 S9        29.98R
$$

USA.gov is the U.S. government's official web portal to all federal, state and local government web resources and services.